When you browse on this site, cookies collect data to enhance your experience and personalize the content and advertising you see.
Visit our Privacy Policy to learn more. By continuing to use the site, you agree to this use of cookies and data.

Hourly Weather Traiguen

Today, 9 July, Thursday

Time Temperature Precipitation Wind Pressure Humidity
00:00 +4°C° 0.1 mm 3 mps 748 mmHg 94%
01:00 +4°C° 0.1 mm 3 mps 748 mmHg 94%
02:00 +4°C° 0.3 mm 4 mps 748 mmHg 93%
03:00 +3°C° 0.3 mm 5 mps 747 mmHg 93%
04:00 +4°C° 0.3 mm 6 mps 747 mmHg 92%
05:00 +4°C° 1.8 mm 6 mps 746 mmHg 93%
06:00 +4°C° 1.8 mm 6 mps 746 mmHg 93%
07:00 +4°C° 1.8 mm 7 mps 745 mmHg 94%
08:00 +4°C° 3.7 mm 7 mps 745 mmHg 94%
09:00 +5°C° 3.7 mm 7 mps 745 mmHg 94%
10:00 +5°C° 3.7 mm 7 mps 744 mmHg 94%
11:00 +5°C° 4.5 mm 7 mps 744 mmHg 95%
12:00 +7°C° 4.5 mm 6 mps 743 mmHg 96%
13:00 +7°C° 4.5 mm 6 mps 742 mmHg 96%
14:00 +8°C° 4.4 mm 6 mps 742 mmHg 96%
15:00 +9°C° 4.4 mm 5 mps 741 mmHg 96%
16:00 +10°C° 4.4 mm 5 mps 741 mmHg 96%
17:00 +10°C° 2.8 mm 5 mps 741 mmHg 96%
18:00 +10°C° 2.8 mm 5 mps 741 mmHg 96%
19:00 +10°C° 2.8 mm 5 mps 741 mmHg 96%
20:00 +10°C° 2.6 mm 5 mps 741 mmHg 96%
21:00 +10°C° 2.6 mm 5 mps 741 mmHg 96%
22:00 +11°C° 2.6 mm 4 mps 740 mmHg 96%
23:00 +11°C° 1.3 mm 4 mps 741 mmHg 95%

Tomorrow, 10 July, Friday

Time Temperature Precipitation Wind Pressure Humidity
00:00 +11°C° 1.3 mm 4 mps 741 mmHg 94%
01:00 +11°C° 1.3 mm 4 mps 741 mmHg 93%
02:00 +10°C° 0.2 mm 4 mps 742 mmHg 93%
03:00 +9°C° 0.2 mm 3 mps 742 mmHg 93%
04:00 +8°C° 0.2 mm 3 mps 743 mmHg 93%
05:00 +8°C° 0.1 mm 2 mps 744 mmHg 93%
06:00 +8°C° 0.1 mm 2 mps 745 mmHg 93%
07:00 +9°C° 0.1 mm 1 mps 746 mmHg 94%
08:00 +9°C° 0.1 mm 1 mps 747 mmHg 90%
09:00 +10°C° 0.1 mm 1 mps 748 mmHg 87%
10:00 +10°C° 0.1 mm 1 mps 748 mmHg 84%
11:00 +11°C° 0.1 mm 1 mps 748 mmHg 81%
12:00 +11°C° 0.1 mm 1 mps 748 mmHg 78%
13:00 +12°C° 0.1 mm 2 mps 748 mmHg 75%
14:00 +10°C° 0 mm 2 mps 748 mmHg 77%
15:00 +10°C° 0 mm 1 mps 748 mmHg 79%
16:00 +10°C° 0 mm 1 mps 748 mmHg 81%
17:00 +9°C° 0 mm 1 mps 748 mmHg 83%
18:00 +7°C° 0 mm 1 mps 748 mmHg 86%
19:00 +5°C° 0 mm 0 mps 748 mmHg 88%
20:00 +5°C° 0 mm 0 mps 748 mmHg 89%
21:00 +6°C° 0 mm 1 mps 748 mmHg 90%
22:00 +6°C° 0 mm 1 mps 748 mmHg 91%
23:00 +6°C° 0 mm 1 mps 748 mmHg 91%

Day after tomorrow, 11 July, Saturday

Time Temperature Precipitation Wind Pressure Humidity
00:00 +6°C° 0 mm 1 mps 748 mmHg 91%
01:00 +5°C° 0 mm 0 mps 748 mmHg 92%
02:00 +6°C° 0 mm 1 mps 747 mmHg 91%
03:00 +6°C° 0 mm 1 mps 747 mmHg 90%
04:00 +6°C° 0 mm 2 mps 746 mmHg 90%
05:00 +6°C° 0.1 mm 2 mps 746 mmHg 90%
06:00 +5°C° 0.1 mm 3 mps 746 mmHg 90%
07:00 +5°C° 0.1 mm 4 mps 746 mmHg 90%
08:00 +5°C° 0.4 mm 4 mps 745 mmHg 91%
09:00 +6°C° 0.4 mm 4 mps 745 mmHg 92%
10:00 +6°C° 0.4 mm 5 mps 745 mmHg 93%
11:00 +6°C° 0.8 mm 4 mps 745 mmHg 94%
12:00 +7°C° 0.8 mm 4 mps 745 mmHg 95%
13:00 +7°C° 0.8 mm 4 mps 745 mmHg 96%
14:00 +7°C° 0.9 mm 4 mps 745 mmHg 96%
15:00 +9°C° 0.9 mm 3 mps 745 mmHg 97%
16:00 +9°C° 0.9 mm 3 mps 744 mmHg 97%
17:00 +9°C° 0.3 mm 3 mps 744 mmHg 97%
18:00 +10°C° 0.3 mm 3 mps 744 mmHg 97%
19:00 +10°C° 0.3 mm 3 mps 744 mmHg 98%
20:00 +10°C° 0.4 mm 3 mps 744 mmHg 97%
21:00 +10°C° 0.4 mm 3 mps 744 mmHg 97%
22:00 +11°C° 0.4 mm 3 mps 744 mmHg 97%
23:00 +11°C° 0.3 mm 3 mps 744 mmHg 97%

12 July, Sunday

Time Temperature Precipitation Wind Pressure Humidity
00:00 +11°C° 0.3 mm 3 mps 743 mmHg 97%
01:00 +11°C° 0.3 mm 3 mps 743 mmHg 97%
02:00 +11°C° 0.1 mm 3 mps 743 mmHg 97%
03:00 +11°C° 0.1 mm 3 mps 743 mmHg 96%
04:00 +11°C° 0.1 mm 3 mps 743 mmHg 96%
05:00 +11°C° 0.3 mm 3 mps 743 mmHg 96%
06:00 +11°C° 0.3 mm 3 mps 743 mmHg 96%
07:00 +11°C° 0.3 mm 3 mps 743 mmHg 96%
08:00 +11°C° 0.5 mm 3 mps 743 mmHg 96%
09:00 +11°C° 0.5 mm 3 mps 744 mmHg 96%
10:00 +11°C° 0.5 mm 3 mps 744 mmHg 96%
11:00 +11°C° 0.6 mm 3 mps 744 mmHg 97%
12:00 +12°C° 0.6 mm 2 mps 744 mmHg 97%
13:00 +12°C° 0.6 mm 2 mps 744 mmHg 97%
14:00 +12°C° 0.6 mm 2 mps 745 mmHg 97%
15:00 +10°C° 0.6 mm 2 mps 745 mmHg 97%
16:00 +11°C° 0.6 mm 1 mps 745 mmHg 97%
17:00 +11°C° 0.3 mm 1 mps 745 mmHg 97%
18:00 +10°C° 0.3 mm 1 mps 746 mmHg 96%
19:00 +10°C° 0.3 mm 1 mps 746 mmHg 96%
20:00 +9°C° 0.1 mm 0 mps 747 mmHg 96%
21:00 +8°C° 0.1 mm 0 mps 747 mmHg 96%
22:00 +8°C° 0.1 mm 0 mps 747 mmHg 95%
23:00 +8°C° 0 mm 0 mps 747 mmHg 96%

13 July, Monday

Time Temperature Precipitation Wind Pressure Humidity
00:00 +7°C° 0 mm 0 mps 747 mmHg 96%
01:00 +7°C° 0 mm 0 mps 747 mmHg 96%
02:00 +7°C° 0 mm 0 mps 747 mmHg 96%
03:00 +6°C° 0 mm 0 mps 747 mmHg 96%
04:00 +6°C° 0 mm 0 mps 747 mmHg 96%
05:00 +6°C° 0 mm 0 mps 747 mmHg 97%
06:00 +6°C° 0 mm 0 mps 747 mmHg 97%
07:00 +7°C° 0 mm 1 mps 747 mmHg 97%
08:00 +8°C° 0 mm 1 mps 748 mmHg 95%
09:00 +9°C° 0 mm 1 mps 748 mmHg 93%
10:00 +10°C° 0 mm 1 mps 748 mmHg 91%
11:00 +11°C° 0 mm 1 mps 748 mmHg 89%
12:00 +13°C° 0 mm 1 mps 748 mmHg 86%
13:00 +14°C° 0 mm 1 mps 747 mmHg 83%
14:00 +13°C° 0 mm 1 mps 747 mmHg 86%
15:00 +13°C° 0 mm 1 mps 747 mmHg 89%
16:00 +12°C° 0 mm 1 mps 747 mmHg 91%
17:00 +11°C° 0 mm 1 mps 747 mmHg 93%
18:00 +10°C° 0 mm 1 mps 747 mmHg 94%
19:00 +9°C° 0 mm 1 mps 747 mmHg 96%
20:00 +8°C° 0 mm 1 mps 747 mmHg 96%
21:00 +8°C° 0 mm 1 mps 747 mmHg 96%
22:00 +8°C° 0 mm 1 mps 747 mmHg 96%
23:00 +7°C° 0 mm 1 mps 747 mmHg 96%

14 July, Tuesday

Time Temperature Precipitation Wind Pressure Humidity
00:00 +6°C° 0 mm 0 mps 747 mmHg 95%
01:00 +6°C° 0 mm 0 mps 746 mmHg 95%
02:00 +6°C° 0 mm 0 mps 746 mmHg 95%
03:00 +5°C° 0 mm 0 mps 746 mmHg 95%
04:00 +5°C° 0 mm 0 mps 745 mmHg 94%
05:00 +5°C° 0 mm 0 mps 745 mmHg 94%
06:00 +5°C° 0 mm 0 mps 745 mmHg 93%
07:00 +5°C° 0 mm 0 mps 746 mmHg 92%
08:00 +7°C° 0 mm 0 mps 746 mmHg 87%
09:00 +9°C° 0 mm 0 mps 746 mmHg 82%
10:00 +11°C° 0 mm 0 mps 746 mmHg 77%
11:00 +12°C° 0 mm 0 mps 745 mmHg 74%
12:00 +13°C° 0 mm 0 mps 745 mmHg 71%
13:00 +15°C° 0 mm 1 mps 744 mmHg 68%
14:00 +14°C° 0 mm 1 mps 744 mmHg 74%
15:00 +14°C° 0 mm 1 mps 744 mmHg 79%
16:00 +13°C° 0 mm 1 mps 744 mmHg 85%
17:00 +12°C° 0 mm 1 mps 744 mmHg 87%
18:00 +10°C° 0 mm 1 mps 743 mmHg 90%
19:00 +9°C° 0 mm 1 mps 743 mmHg 92%
20:00 +9°C° 0 mm 1 mps 743 mmHg 93%
21:00 +9°C° 0 mm 1 mps 743 mmHg 94%
22:00 +9°C° 0 mm 1 mps 743 mmHg 95%
23:00 +8°C° 0 mm 2 mps 743 mmHg 95%
Show more